Location: Étang Rond
(42.7927°N, 1.0661°E)
Time: 00:47:27
(UTC+00:00)

Cosmos 1328 - Pass Details

Date: 08 November 2025
Orbit: 463 x 480 km, 82.5° (Epoch: 07 December)

Event Time Altitude Azimuth Distance (km) Brightness Sun altitude
Rises 05:07:44 0° 203° (SSW) 2,531 7.1 -17.0°
Reaches altitude 10° 05:09:54 10° 211° (SSW) 1,660 6.0 -16.6°
Maximum altitude 05:13:20 40° 282° (WNW) 724 3.9 -15.9°
Drops below altitude 10° 05:16:50 10° 354° (N) 1,679 6.1 -15.3°
Sets 05:19:02 0° 1° (N) 2,565 7.2 -14.9°
